World > North America > United States > Missouri

Hourly Clarkson Valley, MO Regional Weather

Feedback E-mail the Weather

Quick WX

Clarkson Valley, MO Weather Maps

°F °C°F °C
Clarkson Valley Weather Map
UTC Time: 7/1/2022, 22:23
Your Time:

Clarkson Valley, MO Regional Weather

Expires:202207012300;;517033
ASUS43 KEAX 012215
RWREAX

WEATHER ROUNDUP FOR EASTERN KANSAS AND NORTHWEST MISSOURI
NATIONAL WEATHER SERVICE KANSAS CITY/PLEASANT HILL MO
500 PM CDT FRI JUL 01 2022


MOZ041-047>049-056>058-063>065-088>090-097-012300-
...EASTERN AND SOUTHERN MISSOURI...
  
CITY           SKY/WX    TMP DP  RH WIND       PRES   REMARKS
ST. LOUIS INTL PTSUNNY   84  66  54 N14G25    29.95S                  
SPIRIT OF STL  MOSUNNY   94  67  41 SW6       29.92F HX  97           
COLUMBIA       MOSUNNY   92  66  42 W7        29.96F HX  94           
JEFFERSON CITY MOSUNNY   96  63  33 NW7       29.93F HX  97           
MEXICO         PTSUNNY   86  70  58 N12       29.97F HX  90           
HANNIBAL       PTSUNNY   82  64  54 N5        30.01S                  
ROLLA          SUNNY     93  66  40 N5        29.99F HX  96           
LEBANON        SUNNY     91  64  40 N6        30.00F HX  93           
SPRINGFIELD    PTSUNNY   92  65  40 E6        29.97F HX  94           
BRANSON        MOSUNNY   93  64  38 S8        29.99F HX  95           
JOPLIN         MOSUNNY   95  65  37 SE6       29.95F HX  97           
WEST PLAINS    MOSUNNY   92  65  40 E5        29.98F HX  94           
SIKESTON       MOSUNNY   91  72  52 S7        29.97S HX  98           

$$


SKY/WX - Weather  TMP - Temperature  DP - Dew Point  RH - Humidity
WIND - Wind Direction/Speed PRES - Barometric Pressure VSB - Visibility
WCI - Wind Chill Index E13G22 Wind - East Wind 13 mph/Gusts of 22 mph

Trending Headlines

Clarkson Valley Radar Loop



Clarkson Valley Quick Facts


National Two Day Weather Forecast


E-mail the Clarkson Valley Weather Forecast

Voice your opinion or tell us about page issues...